Location: Ocean City
(38.3360°N, 75.0850°W)
Time: 17:56:30
(UTC-04:00)

BEESAT 2 - Pass Details

Date: 28 May 2019
Orbit: 502 x 528 km, 64.9° (Epoch: 24 June)

Event Time Altitude Azimuth Distance (km) Brightness Sun altitude
Rises 01:46:53 0° 339° (NNW) 2,670 ? -29.1°
Reaches altitude 10° 01:49:18 10° 350° (N) 1,778 ? -29.0°
Enters shadow 01:52:27 29° 42° (NE) 1,002 ? -28.9°
